When you browse on this site, cookies collect data to enhance your experience and personalize the content and advertising you see.
Visit our Privacy Policy to learn more. By continuing to use the site, you agree to this use of cookies and data.
  • In Romania
  • List of Countries
  • For 7 days
  • Water Temperature
  • Satellite Maps
  • Weather Map
  • Weather Widgets
  • user-avatar
    Login

    Hourly Weather Verhnesorokino

    Today, 23 July, Tuesday

    Time Temperature Precipitation Wind Pressure Humidity
    00:00 +15°C° 0 mm 2 mps 743 mmHg 93%
    01:00 +14°C° 0 mm 2 mps 743 mmHg 94%
    02:00 +14°C° 0 mm 2 mps 743 mmHg 95%
    03:00 +14°C° 0 mm 1 mps 743 mmHg 96%
    04:00 +13°C° 0 mm 1 mps 743 mmHg 96%
    05:00 +14°C° 0 mm 2 mps 743 mmHg 96%
    06:00 +15°C° 0 mm 2 mps 743 mmHg 95%
    07:00 +16°C° 0 mm 2 mps 743 mmHg 94%
    08:00 +17°C° 0 mm 2 mps 743 mmHg 91%
    09:00 +18°C° 0 mm 3 mps 743 mmHg 88%
    10:00 +19°C° 0 mm 3 mps 744 mmHg 84%
    11:00 +19°C° 0.6 mm 4 mps 744 mmHg 83%
    12:00 +20°C° 0.6 mm 4 mps 744 mmHg 82%
    13:00 +21°C° 0.6 mm 4 mps 744 mmHg 80%
    14:00 +20°C° 0.8 mm 4 mps 744 mmHg 81%
    15:00 +20°C° 0.8 mm 4 mps 744 mmHg 82%
    16:00 +20°C° 0.8 mm 4 mps 744 mmHg 83%
    17:00 +20°C° 0.3 mm 4 mps 744 mmHg 85%
    18:00 +19°C° 0.3 mm 4 mps 745 mmHg 88%
    19:00 +19°C° 0.3 mm 3 mps 745 mmHg 90%
    20:00 +18°C° 0 mm 3 mps 745 mmHg 92%
    21:00 +16°C° 0 mm 3 mps 745 mmHg 93%
    22:00 +14°C° 0 mm 3 mps 745 mmHg 95%
    23:00 +14°C° 0 mm 3 mps 745 mmHg 95%

    Tomorrow, 24 July, Wednesday

    Time Temperature Precipitation Wind Pressure Humidity
    00:00 +14°C° 0 mm 2 mps 745 mmHg 96%
    01:00 +14°C° 0 mm 2 mps 746 mmHg 96%
    02:00 +14°C° 0 mm 2 mps 746 mmHg 97%
    03:00 +14°C° 0 mm 2 mps 746 mmHg 97%
    04:00 +13°C° 0 mm 2 mps 746 mmHg 97%
    05:00 +14°C° 0 mm 2 mps 746 mmHg 96%
    06:00 +16°C° 0 mm 2 mps 746 mmHg 95%
    07:00 +17°C° 0 mm 2 mps 747 mmHg 94%
    08:00 +18°C° 0 mm 2 mps 747 mmHg 88%
    09:00 +20°C° 0 mm 2 mps 747 mmHg 83%
    10:00 +21°C° 0 mm 2 mps 747 mmHg 77%
    11:00 +23°C° 0.3 mm 2 mps 747 mmHg 77%
    12:00 +22°C° 0.3 mm 3 mps 747 mmHg 77%
    13:00 +24°C° 0.3 mm 3 mps 747 mmHg 77%
    14:00 +24°C° 0.7 mm 3 mps 747 mmHg 76%
    15:00 +24°C° 0.7 mm 3 mps 747 mmHg 76%
    16:00 +25°C° 0.7 mm 3 mps 747 mmHg 75%
    17:00 +24°C° 0.3 mm 2 mps 747 mmHg 78%
    18:00 +23°C° 0.3 mm 2 mps 747 mmHg 81%
    19:00 +23°C° 0.3 mm 2 mps 747 mmHg 85%
    20:00 +21°C° 0 mm 2 mps 747 mmHg 86%
    21:00 +19°C° 0 mm 2 mps 748 mmHg 88%
    22:00 +18°C° 0 mm 2 mps 748 mmHg 89%
    23:00 +17°C° 0 mm 2 mps 748 mmHg 90%

    Day after tomorrow, 25 July, Thursday

    Time Temperature Precipitation Wind Pressure Humidity
    00:00 +17°C° 0 mm 2 mps 748 mmHg 90%
    01:00 +16°C° 0 mm 2 mps 748 mmHg 91%
    02:00 +16°C° 0 mm 2 mps 748 mmHg 91%
    03:00 +16°C° 0 mm 2 mps 749 mmHg 91%
    04:00 +15°C° 0 mm 2 mps 749 mmHg 91%
    05:00 +16°C° 0 mm 2 mps 749 mmHg 90%
    06:00 +18°C° 0 mm 2 mps 749 mmHg 89%
    07:00 +19°C° 0 mm 3 mps 749 mmHg 87%
    08:00 +20°C° 0 mm 3 mps 749 mmHg 82%
    09:00 +22°C° 0 mm 3 mps 749 mmHg 76%
    10:00 +25°C° 0 mm 3 mps 749 mmHg 70%
    11:00 +26°C° 0 mm 3 mps 749 mmHg 65%
    12:00 +26°C° 0 mm 3 mps 749 mmHg 61%
    13:00 +27°C° 0 mm 3 mps 749 mmHg 56%
    14:00 +27°C° 0 mm 3 mps 749 mmHg 58%
    15:00 +27°C° 0 mm 3 mps 749 mmHg 60%
    16:00 +28°C° 0 mm 3 mps 749 mmHg 61%
    17:00 +26°C° 0 mm 3 mps 749 mmHg 66%
    18:00 +25°C° 0 mm 3 mps 749 mmHg 72%
    19:00 +24°C° 0 mm 3 mps 749 mmHg 77%
    20:00 +22°C° 0 mm 3 mps 749 mmHg 79%
    21:00 +20°C° 0 mm 3 mps 749 mmHg 81%
    22:00 +18°C° 0 mm 2 mps 749 mmHg 83%
    23:00 +18°C° 0 mm 3 mps 749 mmHg 83%

    26 July, Friday

    Time Temperature Precipitation Wind Pressure Humidity
    00:00 +18°C° 0 mm 3 mps 750 mmHg 83%
    01:00 +17°C° 0 mm 3 mps 750 mmHg 84%
    02:00 +17°C° 0 mm 2 mps 750 mmHg 83%
    03:00 +16°C° 0 mm 2 mps 749 mmHg 83%
    04:00 +16°C° 0 mm 2 mps 749 mmHg 82%
    05:00 +18°C° 0 mm 1 mps 749 mmHg 79%
    06:00 +20°C° 0 mm 1 mps 750 mmHg 76%
    07:00 +21°C° 0 mm 1 mps 750 mmHg 73%
    08:00 +22°C° 0 mm 1 mps 750 mmHg 68%
    09:00 +24°C° 0 mm 1 mps 750 mmHg 64%
    10:00 +25°C° 0 mm 1 mps 749 mmHg 59%
    11:00 +26°C° 0 mm 2 mps 749 mmHg 58%
    12:00 +27°C° 0 mm 2 mps 749 mmHg 56%
    13:00 +27°C° 0 mm 2 mps 749 mmHg 55%
    14:00 +27°C° 0 mm 2 mps 748 mmHg 55%
    15:00 +27°C° 0 mm 2 mps 748 mmHg 56%
    16:00 +28°C° 0 mm 2 mps 748 mmHg 56%
    17:00 +27°C° 0 mm 2 mps 748 mmHg 62%
    18:00 +26°C° 0 mm 2 mps 747 mmHg 69%
    19:00 +25°C° 0 mm 2 mps 747 mmHg 75%
    20:00 +23°C° 0 mm 2 mps 747 mmHg 79%
    21:00 +20°C° 0 mm 2 mps 747 mmHg 83%
    22:00 +19°C° 0 mm 2 mps 747 mmHg 86%
    23:00 +18°C° 0 mm 2 mps 746 mmHg 87%

    27 July, Saturday

    Time Temperature Precipitation Wind Pressure Humidity
    00:00 +18°C° 0 mm 2 mps 746 mmHg 87%
    01:00 +18°C° 0 mm 1 mps 746 mmHg 88%
    02:00 +18°C° 0 mm 1 mps 746 mmHg 87%
    03:00 +16°C° 0 mm 1 mps 745 mmHg 87%
    04:00 +16°C° 0 mm 1 mps 745 mmHg 86%
    05:00 +18°C° 0 mm 1 mps 745 mmHg 83%
    06:00 +18°C° 0 mm 0 mps 745 mmHg 81%
    07:00 +19°C° 0 mm 0 mps 745 mmHg 78%
    08:00 +20°C° 0.1 mm 0 mps 744 mmHg 75%
    09:00 +22°C° 0.1 mm 0 mps 744 mmHg 71%
    10:00 +23°C° 0.1 mm 0 mps 744 mmHg 68%
    11:00 +23°C° 0.3 mm 0 mps 743 mmHg 65%
    12:00 +24°C° 0.3 mm 0 mps 743 mmHg 62%
    13:00 +27°C° 0.3 mm 1 mps 742 mmHg 58%
    14:00 +25°C° 0.1 mm 0 mps 742 mmHg 58%
    15:00 +25°C° 0.1 mm 0 mps 741 mmHg 57%
    16:00 +25°C° 0.1 mm 0 mps 741 mmHg 57%
    17:00 +25°C° 0.4 mm 1 mps 740 mmHg 65%
    18:00 +24°C° 0.4 mm 1 mps 740 mmHg 73%
    19:00 +23°C° 0.4 mm 2 mps 739 mmHg 81%
    20:00 +22°C° 0 mm 1 mps 739 mmHg 83%
    21:00 +20°C° 0 mm 1 mps 739 mmHg 84%
    22:00 +17°C° 0 mm 0 mps 738 mmHg 85%
    23:00 +18°C° 0 mm 1 mps 738 mmHg 86%

    28 July, Sunday

    Time Temperature Precipitation Wind Pressure Humidity
    00:00 +18°C° 0 mm 1 mps 737 mmHg 87%
    01:00 +18°C° 0 mm 1 mps 737 mmHg 88%
    02:00 +16°C° 0 mm 1 mps 736 mmHg 89%
    03:00 +16°C° 0 mm 2 mps 736 mmHg 91%
    04:00 +16°C° 0 mm 2 mps 735 mmHg 92%
    05:00 +16°C° 0.2 mm 2 mps 735 mmHg 91%
    06:00 +17°C° 0.2 mm 3 mps 734 mmHg 90%
    07:00 +18°C° 0.2 mm 3 mps 734 mmHg 89%
    08:00 +19°C° 0.8 mm 3 mps 733 mmHg 87%
    09:00 +20°C° 0.8 mm 3 mps 732 mmHg 85%
    10:00 +21°C° 0.8 mm 3 mps 732 mmHg 82%
    11:00 +21°C° 1.7 mm 3 mps 732 mmHg 81%
    12:00 +22°C° 1.7 mm 3 mps 731 mmHg 80%
    13:00 +22°C° 1.7 mm 3 mps 731 mmHg 79%
    14:00 +21°C° 1.3 mm 3 mps 731 mmHg 82%
    15:00 +21°C° 1.3 mm 3 mps 731 mmHg 84%
    16:00 +20°C° 1.3 mm 3 mps 731 mmHg 87%
    17:00 +18°C° 0.5 mm 4 mps 731 mmHg 90%
    18:00 +15°C° 0.5 mm 4 mps 731 mmHg 93%
    19:00 +13°C° 0.5 mm 4 mps 731 mmHg 96%
    20:00 +13°C° 0.5 mm 4 mps 731 mmHg 96%
    21:00 +12°C° 0.5 mm 4 mps 731 mmHg 97%
    22:00 +12°C° 0.5 mm 4 mps 731 mmHg 97%
    23:00 +12°C° 0.3 mm 4 mps 730 mmHg 97%
    Show more